[[{"header":{"parameterUnit":"m.s-1","parameterCategory":1,"la1":30.2991,"la2":30.254,"lo1":-89.0895,"lo2":-89.0444,"dy":0.0017,"dx":0.0017,"nx":28,"ny":28,"refTime":"2024-12-26T03:00:00:Z","depth":0,"parameterNumber":2,"parameterNumberName":"U-component_of_WINDS"},"data":[0,0,0,0,0,0,0,0,0,0,0,0,0,0,0,0,0,0,0,0,0,0,0,0,0,0,0,0,0,0,0,0,0,0,0,0,0,0,0,0,0,0,0,0,0,0,0,0,0,0,0,0,0,0,0,0,0,0,-5.9811,-5.9812,0,-5.9905,-5.9906,-5.9907,-5.9784,-5.9779,-5.9775,-5.9771,-5.9873,-5.988,-5.9887,0,0,0,0,0,0,0,0,0,0,0,0,0,-5.9531,-5.9537,-5.981,-5.9812,-5.9813,-5.9905,-5.9906,-5.9907,-5.9785,-5.9779,-5.9774,-5.9769,-5.9871,-5.9879,-5.9888,0,0,0,0,0,0,0,0,0,0,0,0,0,-5.9642,-5.9539,-5.981,-5.9763,-5.9759,-5.9905,-5.9906,-5.9908,-5.9786,-5.9779,-5.9772,-5.9766,-5.9868,-5.9878,-5.9889,-6.0087,0,0,-5.992,-5.9925,0,0,0,0,0,0,0,0,-5.9636,-5.9652,-5.9768,-5.9766,-5.9763,-5.9826,-5.9845,-5.9968,-5.9788,-5.9776,-5.9771,-5.9763,-5.9863,-5.9874,-5.9906,-6.0092,-6.0096,-5.9921,-5.9928,-5.9932,-5.9935,0,0,0,0,0,0,0,-5.9628,-5.9647,-5.9848,-5.977,-5.9767,-5.9739,-5.9747,-5.9868,-5.9856,-5.9776,-5.9768,-5.978,-5.986,-5.9897,-5.9908,-6.0098,-5.9921,-5.993,-5.9937,-5.9941,-6.0455,-6.0462,0,0,0,0,0,0,-5.9625,-5.9642,-5.9845,-5.9851,-5.9681,-5.9749,-5.9759,-5.9812,-5.9855,-5.9855,-5.9786,-5.9774,-5.9882,-5.9896,-5.9911,-6.0148,-5.9932,-5.9942,-5.9948,-6.0447,-6.0456,-6.0465,0,0,0,0,0,0,-5.962,-5.9644,-5.9841,-5.9744,-5.9767,-5.9761,-5.9823,-5.9818,-5.9853,-5.9862,-5.986,-5.9824,-5.9877,-5.9896,-6.0045,-6.015,-5.9946,-5.9956,-6.0439,-6.045,-6.0461,-6.0623,0,0,0,0,0,0,-5.9612,-5.9643,-5.9717,-5.9747,-5.9773,-5.9971,-5.9829,-5.9824,-5.9871,-5.9857,-5.9897,-5.9898,-5.9874,-6.003,-6.0055,-6.016,-5.9964,-6.0429,-6.0444,-6.0457,-6.0608,-6.0638,-6.0664,0,0,0,0,0,-5.9603,-5.9759,-5.9721,-5.9746,-5.9864,-5.9978,-5.9993,-5.996,-5.988,-5.9955,-5.9961,-5.9896,-6.0134,-6.0046,-6.0073,-6.0183,-6.0422,-6.044,-6.0456,-6.0595,-6.0632,-6.0663,0,0,0,0,0,0,-5.9743,-5.9762,-5.972,-5.989,-5.9933,-5.9956,-6.005,-6.0,-6.0067,-6.0051,-6.001,-6.002,-6.0179,-6.0196,-6.0097,-6.038,-6.0266,-6.0289,-6.0362,-6.0397,-6.0425,-6.0417,-5.9972,0,0,0,0,0,-5.9793,-5.9882,-5.9895,-6.0044,-6.0068,-6.0056,-6.0104,-6.0075,-6.0119,-6.0137,-6.0153,-6.02,-6.0285,-6.0342,-6.0421,-6.061,-6.0619,-6.07,-6.0728,-6.075,-6.0771,-6.0875,-6.0912,-6.052,-6.0519,-6.0519,0,0,-5.9899,-5.992,-5.9979,-6.0073,-6.0102,-6.0198,-6.0072,-6.0177,-6.0248,-6.0153,-6.0294,-6.0308,-6.0358,-6.0528,-6.0604,-6.0547,-6.0882,-6.0772,-6.079,-6.0798,-6.0896,-6.0934,-6.0967,-6.0531,-6.0529,-6.0527,0,0,-6.014,-6.0164,-6.0292,-6.0325,-6.0371,-6.0363,-6.0394,-6.0426,-6.0432,-6.0572,-6.0504,-6.0589,-6.0736,-6.0775,-6.0814,-6.1074,-6.1018,-6.1101,-6.1247,-6.1349,-6.138,-6.1407,-6.1502,-6.1536,-6.1121,-6.1122,-6.1122,0,-6.0265,-6.0404,-6.0365,-6.0476,-6.052,-6.0438,-6.0569,-6.0604,-6.0675,-6.0709,-6.0644,-6.0829,-6.0856,-6.1036,-6.1099,-6.1133,-6.117,-6.1096,-6.1378,-6.1405,-6.143,-6.152,-6.1556,-6.1132,-6.1131,-6.113,-6.1129,0,-6.0557,-6.0655,-6.0753,-6.0823,-6.0879,-6.0999,-6.0981,-6.1043,-6.1011,-6.101,-6.1157,-6.1187,-6.1272,-6.1312,-6.1282,-6.1489,-6.1453,-6.1384,-6.1269,-6.1478,-6.1562,-6.1596,-6.1146,-6.1142,-6.1139,-6.1137,0,0,-6.0887,-6.0935,-6.0972,-6.1004,-6.1051,-6.1127,-6.1246,-6.1327,-6.1382,-6.1435,-6.1535,-6.1663,-6.1601,-6.1645,-6.1619,-6.1709,-6.1916,-6.163,-6.163,-6.1683,-6.2149,-6.2201,-6.2241,-6.1879,-6.1886,-6.1891,-6.2145,0,-6.1129,-6.1331,-6.1302,-6.1498,-6.159,-6.1515,-6.1619,-6.1661,-6.1665,-6.1745,-6.1749,-6.1841,-6.1751,-6.1778,-6.1863,-6.1872,-6.2009,-6.1854,-6.1975,-6.1979,-6.1965,-6.2284,-6.2339,-6.2577,-6.2178,-6.2183,-6.2187,0,-6.1437,-6.1501,-6.1707,-6.1742,-6.1779,-6.1873,-6.1947,-6.2023,-6.2071,-6.2068,-6.2119,-6.2078,-6.22,-6.2083,-6.2252,-6.2148,-6.2196,-6.2208,-6.2217,-6.2227,-6.2096,-6.2305,-6.2652,-6.2689,-6.2238,-6.2234,-6.223,0,-6.1659,-6.1796,-6.1937,-6.1967,-6.2011,-6.2079,-6.2102,-6.2142,-6.2194,-6.226,-6.2294,-6.2374,-6.2418,-6.2483,-6.2465,-6.2381,-6.264,-6.2521,-6.2643,-6.2644,-6.27,-6.2697,-6.3062,-6.2731,-6.273,-6.273,-6.2729,0,-6.1932,-6.2062,-6.2038,-6.2125,-6.2269,-6.2235,-6.2379,-6.2392,-6.243,-6.252,-6.2462,-6.2548,-6.252,-6.2606,-6.2594,-6.2738,-6.2758,-6.2761,-6.2756,-6.2766,-6.2766,-6.2797,-6.278,-6.2739,-6.2737,-6.2735,-6.2734,0,-6.2203,-6.2192,-6.2342,-6.2372,-6.2383,-6.2488,-6.2515,-6.2599,-6.2599,-6.2715,-6.274,-6.2741,-6.284,-6.2829,-6.294,-6.2932,-6.3111,-6.3086,-6.3094,-6.3089,-6.3212,-6.3201,-6.361,-6.3663,-6.3298,-6.3301,-6.3304,0,-6.2378,-6.2476,-6.2517,-6.2573,-6.26,-6.2691,-6.2743,-6.2716,-6.2774,-6.2837,-6.2914,-6.3007,-6.308,-6.3243,-6.3255,-6.3341,-6.3318,-6.3456,-6.3331,-6.3339,-6.3322,-6.3316,-6.3327,-6.348,-6.3484,-6.3488,-6.3491,0,-6.2691,-6.2681,-6.2759,-6.2836,-6.2901,-6.2961,-6.3015,-6.3065,-6.3042,-6.3112,-6.3211,-6.3268,-6.3382,-6.3477,-6.3558,-6.3584,-6.3536,-6.353,-6.3563,-6.3575,-6.3576,-6.3578,-6.3162,-6.3521,-6.3518,-6.3515,-6.3514,-6.3513,-6.292,-6.3004,-6.3047,-6.3137,-6.3174,-6.3227,-6.3308,-6.3318,-6.34,-6.349,-6.3469,-6.3583,-6.3632,-6.3736,-6.377,-6.3861,-6.3811,-6.3859,-6.3871,-6.3883,-6.3898,-6.3562,-6.3876,-6.3875,-6.3874,-6.3873,-6.3873,0,-6.323,-6.3255,-6.3337,-6.3415,-6.3487,-6.3433,-6.3491,-6.3555,-6.3655,-6.3704,-6.3778,-6.3895,-6.3987,-6.4008,-6.4097,-6.4166,-6.4146,-6.419,-6.4185,-6.4192,-6.3937,-6.3899,-6.4205,-6.4205,-6.4205,-6.4205,-6.4205,-6.4205,-6.34,-6.354,-6.3537,-6.3697,-6.3721,-6.3831,-6.3869,-6.3919,-6.3957,-6.409,-6.4166,-6.4178,-6.4217,-6.4309,-6.4393,-6.4397,-6.4433,-6.4487,-6.4483,-6.4243,-6.421,-6.4178,-6.4143,-6.4495,-6.4495,-6.4731,-6.4733,-6.4734]},{"header":{"parameterUnit":"m.s-1","parameterCategory":1,"la1":30.2991,"la2":30.254,"lo1":-89.0895,"lo2":-89.0444,"dy":0.0017,"dx":0.0017,"nx":28,"ny":28,"refTime":"2024-12-26T03:00:00:Z","depth":0,"parameterNumber":3,"parameterNumberName":"V-component_of_WINDS"},"data":[0,0,0,0,0,0,0,0,0,0,0,0,0,0,0,0,0,0,0,0,0,0,0,0,0,0,0,0,0,0,0,0,0,0,0,0,0,0,0,0,0,0,0,0,0,0,0,0,0,0,0,0,0,0,0,0,0,0,-1.372,-1.3719,0,-1.3619,-1.3618,-1.3617,-1.354,-1.3539,-1.3539,-1.3538,-1.343,-1.3428,-1.3425,0,0,0,0,0,0,0,0,0,0,0,0,0,-1.3841,-1.384,-1.372,-1.3719,-1.3718,-1.3619,-1.3618,-1.3617,-1.354,-1.3539,-1.3538,-1.3538,-1.3431,-1.3428,-1.3425,0,0,0,0,0,0,0,0,0,0,0,0,0,-1.3769,-1.3839,-1.3721,-1.3668,-1.3662,-1.362,-1.3618,-1.3616,-1.354,-1.3539,-1.3538,-1.3537,-1.3431,-1.3428,-1.3425,-1.3425,0,0,-1.3415,-1.3413,0,0,0,0,0,0,0,0,-1.3774,-1.3765,-1.3677,-1.3671,-1.3665,-1.3591,-1.3621,-1.3552,-1.3541,-1.3586,-1.3538,-1.3537,-1.3484,-1.3476,-1.3459,-1.342,-1.3415,-1.3414,-1.3412,-1.3411,-1.341,0,0,0,0,0,0,0,-1.3779,-1.3769,-1.368,-1.3676,-1.3668,-1.3647,-1.3636,-1.3607,-1.3542,-1.3582,-1.3577,-1.3566,-1.3481,-1.3463,-1.3456,-1.3414,-1.3414,-1.3411,-1.3409,-1.3408,-1.3366,-1.3367,0,0,0,0,0,0,-1.3793,-1.3774,-1.3683,-1.3677,-1.3718,-1.3646,-1.3633,-1.3616,-1.3542,-1.353,-1.3567,-1.3563,-1.3469,-1.346,-1.3452,-1.3446,-1.3411,-1.3408,-1.3406,-1.3366,-1.3367,-1.3368,0,0,0,0,0,0,-1.3795,-1.3785,-1.3687,-1.3724,-1.371,-1.3645,-1.3626,-1.3614,-1.3597,-1.3531,-1.3518,-1.3561,-1.3468,-1.3457,-1.3432,-1.3441,-1.3406,-1.3403,-1.3365,-1.3366,-1.3367,-1.3435,0,0,0,0,0,0,-1.3799,-1.3787,-1.3788,-1.3724,-1.3708,-1.3671,-1.3627,-1.3613,-1.3592,-1.3585,-1.3522,-1.3511,-1.3466,-1.3438,-1.3429,-1.3436,-1.3401,-1.3363,-1.3365,-1.3367,-1.3432,-1.3439,-1.3444,0,0,0,0,0,-1.3804,-1.381,-1.3788,-1.3778,-1.3708,-1.3672,-1.3662,-1.3613,-1.3593,-1.3592,-1.3549,-1.3513,-1.3442,-1.3436,-1.3425,-1.3432,-1.3363,-1.3365,-1.3367,-1.3429,-1.3437,-1.3444,0,0,0,0,0,0,-1.3875,-1.3801,-1.3776,-1.3762,-1.3724,-1.3659,-1.3657,-1.3623,-1.3589,-1.3584,-1.3522,-1.3509,-1.349,-1.3458,-1.3452,-1.3427,-1.3397,-1.3397,-1.3448,-1.3456,-1.3462,-1.347,-1.3398,0,0,0,0,0,-1.389,-1.3868,-1.3804,-1.3798,-1.378,-1.3722,-1.3704,-1.3669,-1.3626,-1.3609,-1.3565,-1.3523,-1.3491,-1.3472,-1.3439,-1.3427,-1.341,-1.3426,-1.3432,-1.3438,-1.3438,-1.3427,-1.3432,-1.3374,-1.3374,-1.3374,0,0,-1.3918,-1.3875,-1.3865,-1.3811,-1.3777,-1.3754,-1.3709,-1.3687,-1.3668,-1.3605,-1.3579,-1.3545,-1.3494,-1.3476,-1.3465,-1.3449,-1.345,-1.344,-1.3445,-1.3442,-1.343,-1.3435,-1.344,-1.3376,-1.3375,-1.3375,0,0,-1.3959,-1.3926,-1.3916,-1.3883,-1.3833,-1.3794,-1.3792,-1.3732,-1.3707,-1.368,-1.3632,-1.3608,-1.3555,-1.3521,-1.3496,-1.3523,-1.3487,-1.3513,-1.3546,-1.3536,-1.3541,-1.3545,-1.3553,-1.3556,-1.3514,-1.3514,-1.3514,0,-1.4001,-1.3967,-1.3915,-1.3896,-1.3872,-1.3816,-1.3804,-1.3774,-1.3716,-1.37,-1.3683,-1.3614,-1.3576,-1.3547,-1.3553,-1.3536,-1.353,-1.352,-1.3545,-1.3548,-1.3551,-1.3557,-1.3561,-1.3518,-1.3517,-1.3517,-1.3517,0,-1.402,-1.3997,-1.3995,-1.3941,-1.3917,-1.3902,-1.3846,-1.3828,-1.3794,-1.3757,-1.3728,-1.3681,-1.3637,-1.3627,-1.3594,-1.3593,-1.3584,-1.3557,-1.3526,-1.3561,-1.3566,-1.3568,-1.3523,-1.3522,-1.3521,-1.352,0,0,-1.4104,-1.4021,-1.4021,-1.3995,-1.3935,-1.3914,-1.3896,-1.3854,-1.3838,-1.3799,-1.378,-1.3736,-1.371,-1.3682,-1.3645,-1.3636,-1.3658,-1.3609,-1.3607,-1.3619,-1.3651,-1.3672,-1.3676,-1.3634,-1.3634,-1.3634,-1.3655,0,-1.4134,-1.41,-1.4052,-1.4032,-1.4008,-1.3953,-1.3936,-1.3897,-1.386,-1.3833,-1.3792,-1.3762,-1.373,-1.3713,-1.3702,-1.3658,-1.3663,-1.3656,-1.3614,-1.3613,-1.3628,-1.3679,-1.3701,-1.3723,-1.3657,-1.3657,-1.3658,0,-1.4166,-1.4131,-1.4109,-1.405,-1.4038,-1.4024,-1.3981,-1.3956,-1.3909,-1.3883,-1.3852,-1.3811,-1.3785,-1.3759,-1.3722,-1.3718,-1.3697,-1.3673,-1.3672,-1.3666,-1.3637,-1.3672,-1.3729,-1.3732,-1.366,-1.366,-1.366,0,-1.4227,-1.4175,-1.4154,-1.4134,-1.4064,-1.4055,-1.4026,-1.3977,-1.3955,-1.3916,-1.39,-1.3859,-1.3836,-1.3804,-1.3752,-1.3737,-1.372,-1.3689,-1.3696,-1.3697,-1.3694,-1.3695,-1.3747,-1.3683,-1.3683,-1.3683,-1.3683,0,-1.4266,-1.4255,-1.4181,-1.4169,-1.4153,-1.4097,-1.4083,-1.4048,-1.4005,-1.3983,-1.3932,-1.3912,-1.3846,-1.3817,-1.3776,-1.3751,-1.3741,-1.3717,-1.3706,-1.3722,-1.3724,-1.3707,-1.3704,-1.3684,-1.3684,-1.3683,-1.3683,0,-1.4332,-1.4283,-1.4257,-1.4193,-1.4177,-1.4168,-1.4112,-1.4097,-1.4057,-1.403,-1.402,-1.3958,-1.3921,-1.3867,-1.3813,-1.3786,-1.3766,-1.3749,-1.3783,-1.3776,-1.3785,-1.3785,-1.3827,-1.3829,-1.3766,-1.3766,-1.3767,0,-1.436,-1.435,-1.4286,-1.4268,-1.424,-1.4213,-1.4189,-1.4133,-1.411,-1.4055,-1.4045,-1.4005,-1.397,-1.3914,-1.3862,-1.3821,-1.3801,-1.3819,-1.3795,-1.381,-1.38,-1.3801,-1.3798,-1.3825,-1.3826,-1.3826,-1.3827,0,-1.4414,-1.439,-1.4359,-1.432,-1.4293,-1.4259,-1.4222,-1.421,-1.4145,-1.4122,-1.4085,-1.4058,-1.4003,-1.3963,-1.3914,-1.3881,-1.3842,-1.3835,-1.3834,-1.3849,-1.3869,-1.3857,-1.3797,-1.3834,-1.3834,-1.3833,-1.3833,-1.3832,-1.4461,-1.4449,-1.4401,-1.4368,-1.4334,-1.4301,-1.4283,-1.4241,-1.421,-1.4163,-1.4131,-1.4095,-1.4045,-1.3976,-1.3944,-1.3914,-1.3897,-1.3897,-1.3896,-1.3896,-1.3901,-1.3874,-1.3905,-1.3904,-1.3904,-1.3904,-1.3904,0,-1.4511,-1.4478,-1.4448,-1.4398,-1.4371,-1.4339,-1.4296,-1.4275,-1.4245,-1.4203,-1.417,-1.4126,-1.4086,-1.4031,-1.3987,-1.3973,-1.3954,-1.3963,-1.3963,-1.3956,-1.3919,-1.3924,-1.3979,-1.3979,-1.3979,-1.3979,-1.3979,-1.3979,-1.4534,-1.4512,-1.4481,-1.4441,-1.4406,-1.4372,-1.435,-1.4318,-1.4284,-1.4238,-1.4205,-1.417,-1.4122,-1.4074,-1.4035,-1.402,-1.4005,-1.402,-1.3999,-1.3965,-1.3958,-1.3952,-1.3956,-1.4017,-1.4017,-1.4038,-1.4038,-1.4038]}]]